RH
18 21 22 23 25 26 28 32 34 37 37 39 42 41 46 56 60 60 64 66 65 70 75 71 71 76 79 84 89 91 91 88 88 88 85 79 74 71 64 57 55 52 49 49 50 47 39 33 32 30 30 31 29 28 32 35 39 42 40 37 37 41 44 45 46 48 50 48 53 62 64 60 58 57 55 48 45 44 42 43 44 44 46 48 50 50
17 20 21 20 23 24 26 30 33 36 35 37 42 38 37 44 52 57 63 68 67 70 76 74 74 76 77 82 89 91 91 88 88 87 84 78 74 73 64 56 57 56 54 52 53 51 42 35 31 28 29 30 28 28 30 33 38 41 40 37 36 40 44 44 45 46 47 47 50 59 62 59 57 57 58 51 45 45 44 43 44 44 46 48 52 52
19 18 18 17 19 21 25 28 30 34 33 35 38 38 39 42 52 63 65 67 68 71 76 76 77 78 77 82 88 92 91 89 89 86 84 81 76 73 65 57 59 61 58 52 53 54 45 36 32 28 28 29 27 27 30 31 34 38 40 39 36 38 43 44 44 44 46 46 48 55 58 58 57 57 58 55 46 44 45 44 44 44 45 46 49 49
20 17 16 16 16 17 19 23 27 30 31 33 34 38 45 46 52 64 68 68 69 71 74 76 79 79 78 82 86 91 92 90 90 85 83 87 83 77 70 62 60 61 57 53 55 54 46 38 34 29 28 29 27 28 31 31 30 33 37 40 37 37 40 42 42 42 44 45 47 51 55 56 57 57 59 57 50 44 44 45 44 44 45 46 47 48
18 15 14 15 15 15 15 18 22 25 28 31 31 36 44 44 49 58 65 71 72 72 72 73 81 83 80 84 85 88 93 92 91 85 82 88 89 83 76 67 62 60 56 54 55 52 45 38 33 30 29 29 28 28 30 31 29 29 34 39 39 36 37 38 38 40 42 43 45 49 52 53 53 56 60 58 52 46 44 46 43 42 44 45 46 47
16 13 14 15 14 13 15 16 17 20 25 28 30 35 41 46 55 61 63 68 76 80 74 69 81 87 80 82 84 86 91 93 92 88 86 88 89 86 81 73 67 62 58 55 55 50 43 38 35 32 31 31 30 29 30 31 30 29 32 37 38 36 36 35 35 38 41 42 43 46 49 50 49 53 58 56 52 47 44 45 43 42 46 46 46 48
15 13 15 15 14 13 14 14 14 18 22 26 29 33 41 49 61 66 63 67 75 77 72 66 75 85 81 78 80 82 87 92 93 91 90 89 86 83 81 77 71 67 62 56 55 52 46 41 37 35 33 32 31 30 31 31 29 29 31 34 35 36 36 34 34 36 40 41 41 43 45 47 47 49 54 55 53 50 46 43 42 43 48 50 47 49
13 14 15 15 16 14 13 13 14 17 22 26 29 33 42 49 56 61 61 65 69 68 70 67 66 78 82 74 72 78 84 90 92 92 92 90 86 82 80 78 76 74 68 59 56 53 48 45 41 38 37 35 32 32 32 31 29 29 30 30 31 32 34 34 34 35 38 40 40 41 43 45 45 45 48 51 51 52 50 46 43 44 49 52 50 49
14 15 15 15 15 16 14 11 12 17 21 26 30 33 39 42 47 57 63 66 64 66 77 72 63 75 81 72 70 76 81 85 88 88 90 90 88 84 81 80 80 78 73 65 59 54 50 49 47 44 43 41 37 34 33 33 32 30 29 28 27 28 29 31 33 34 36 40 40 40 42 44 44 42 43 46 49 52 53 51 48 47 50 53 51 51
16 16 15 15 15 15 13 11 12 15 20 26 31 33 38 46 50 56 65 66 61 67 78 71 62 72 79 73 73 77 77 77 79 81 85 88 88 85 82 82 84 83 77 70 65 60 55 53 52 49 47 47 43 38 36 35 34 33 31 30 27 25 25 27 31 32 33 38 41 41 42 42 41 40 40 43 48 51 53 53 52 49 51 54 54 52
20 18 18 17 15 14 12 13 13 12 19 28 33 34 38 49 56 59 64 65 64 69 69 62 60 66 74 76 73 71 68 67 71 75 79 84 85 84 81 79 81 84 81 75 70 66 63 59 57 54 51 50 47 43 41 37 34 34 34 32 28 25 24 23 26 29 30 35 40 42 42 41 40 39 38 39 44 49 51 52 52 52 52 53 55 53
23 21 20 17 16 15 13 14 14 11 17 26 35 37 38 48 60 66 67 64 65 66 58 55 58 60 68 72 66 62 60 60 68 70 72 76 78 79 79 76 76 80 82 78 73 69 67 64 61 58 56 53 50 48 45 41 37 35 34 33 31 28 25 24 23 24 26 30 36 40 41 42 41 39 37 36 40 44 47 50 51 53 53 52 54 54
27 23 21 19 18 17 15 16 15 12 16 26 36 40 42 51 63 69 69 62 60 58 50 50 57 59 64 64 58 58 58 59 64 67 68 71 72 75 77 78 78 80 81 78 74 70 67 65 63 60 59 57 55 51 47 44 41 37 34 33 33 30 26 24 23 21 22 26 30 35 38 40 41 40 38 36 38 40 43 46 49 52 54 52 52 52
30 27 24 23 20 19 18 17 17 14 15 24 36 41 44 51 58 61 62 57 52 51 48 50 57 62 64 62 57 56 57 59 61 63 65 68 72 73 76 79 82 83 81 78 75 70 67 66 65 64 62 60 58 55 52 49 48 45 41 37 34 31 27 24 23 22 20 22 26 29 33 36 38 39 39 38 38 39 40 43 46 49 51 51 50 49
36 35 29 24 22 20 19 18 19 16 15 21 31 38 42 46 48 49 52 51 47 50 56 59 62 64 65 64 59 56 57 60 62 61 63 67 70 72 75 77 81 83 82 78 75 71 69 69 68 68 67 64 62 59 57 55 54 52 51 47 42 36 29 25 24 23 21 20 23 25 28 31 33 34 38 39 39 40 40 40 43 46 47 48 48 48
40 38 32 26 24 22 19 19 19 17 19 22 26 32 37 40 42 43 46 45 41 52 67 67 66 67 66 63 60 59 60 61 62 62 63 65 67 70 73 74 76 80 81 80 78 73 72 75 74 72 71 69 65 62 60 61 62 61 58 55 52 47 39 31 25 24 23 21 22 23 25 27 29 32 36 39 41 41 41 39 40 43 45 45 45 46
40 39 36 31 27 23 21 21 20 20 25 27 27 32 34 37 40 41 42 40 39 59 76 73 72 71 66 65 64 64 64 64 64 64 64 65 66 67 69 70 74 79 81 81 79 76 79 84 81 73 69 69 66 63 62 66 69 70 67 61 57 54 50 43 35 28 24 24 23 23 24 26 28 32 35 38 39 41 43 42 40 40 42 44 45 45
40 41 40 35 32 27 23 24 25 26 29 28 28 33 34 35 38 39 40 38 43 66 79 78 78 74 69 69 68 69 70 69 68 67 65 65 67 68 67 68 72 77 81 82 82 84 85 85 84 77 71 68 66 65 65 67 69 71 70 67 62 59 57 55 49 39 30 26 26 25 25 26 29 31 34 35 36 37 41 43 42 40 40 43 46 46
39 42 42 37 37 33 26 27 29 30 29 28 29 33 36 38 38 37 37 37 47 67 78 80 79 74 71 69 67 71 76 75 73 68 64 65 68 70 70 69 70 74 80 82 83 87 86 83 82 78 74 73 73 72 70 68 68 68 68 69 67 66 63 61 59 53 43 31 27 27 27 27 29 32 33 34 34 36 38 40 41 40 39 40 45 48
38 42 44 39 38 35 31 31 32 31 29 28 30 32 35 41 41 38 36 39 51 67 73 77 80 76 73 70 69 72 75 77 77 69 65 66 69 73 72 70 70 71 76 77 80 83 82 82 83 78 76 77 78 78 74 70 69 68 68 68 69 70 68 68 67 64 57 44 33 31 31 29 30 31 33 33 34 36 37 38 38 38 39 40 44 49
39 42 42 39 38 37 35 34 34 34 31 30 32 33 33 36 38 37 36 38 49 65 70 71 77 77 72 71 74 74 71 72 74 70 67 68 69 71 71 70 69 69 72 74 75 77 77 78 79 77 76 76 78 80 77 73 71 71 71 71 73 74 72 73 74 72 71 62 51 43 38 34 33 33 33 34 34 34 36 37 36 36 38 41 45 50
42 44 43 42 42 41 37 34 36 38 35 31 33 36 35 35 36 37 39 39 44 57 64 65 72 75 69 68 72 73 69 66 68 70 70 68 68 69 70 70 68 66 70 72 70 70 72 73 74 75 77 76 78 81 78 73 72 74 76 77 80 82 79 79 81 81 79 75 67 57 48 40 36 34 34 34 34 33 33 35 35 36 38 39 43 48
46 47 47 44 43 41 37 33 37 41 37 31 32 35 37 37 37 38 41 43 47 55 60 62 72 77 70 65 67 69 67 62 65 72 71 67 67 67 68 69 67 65 67 70 70 69 70 72 73 74 76 76 76 78 76 75 75 75 78 81 84 85 84 86 88 86 82 79 71 62 57 51 44 38 35 33 33 33 33 34 37 38 38 38 40 43
49 49 50 49 44 42 37 33 38 42 38 35 33 33 34 35 36 39 41 45 54 62 64 67 77 80 73 68 66 67 67 64 65 69 70 69 67 65 65 65 64 64 67 71 72 70 69 72 72 73 74 74 73 75 76 75 75 74 76 81 85 83 84 90 92 86 81 77 71 64 63 63 60 58 52 41 34 33 33 35 38 40 40 38 39 41
49 51 55 56 53 50 44 39 42 45 41 39 36 33 34 34 35 40 44 49 58 64 64 71 80 80 75 73 70 69 72 71 70 70 71 71 68 64 62 61 61 61 63 69 73 71 71 73 73 72 73 73 72 73 74 74 75 76 77 81 84 83 85 90 91 85 81 79 75 70 69 70 72 75 71 58 47 40 35 34 36 39 40 40 39 40
49 52 56 60 62 60 54 46 45 48 45 41 39 36 37 36 34 39 46 54 62 65 63 69 79 81 77 75 75 75 75 74 75 77 75 71 68 65 62 61 62 61 61 65 69 71 72 74 74 73 72 73 71 69 71 72 75 77 79 81 83 83 84 87 88 85 81 80 80 76 72 72 74 77 77 73 67 58 49 43 39 36 36 37 37 38
53 55 52 56 61 60 56 50 45 45 44 41 39 38 39 38 36 39 46 50 56 65 69 67 68 75 77 75 74 77 75 73 76 79 78 72 68 67 64 61 61 61 61 62 66 69 71 72 74 72 70 70 69 67 68 70 73 77 79 83 84 81 81 84 85 84 82 81 82 81 77 74 72 75 78 78 75 68 62 57 51 44 39 36 35 35
55 55 49 51 54 52 50 47 40 38 40 41 40 40 40 38 36 41 48 48 50 62 74 72 63 65 70 71 72 72 71 72 75 75 74 72 68 65 62 59 59 61 61 60 64 69 69 70 72 71 67 68 68 66 65 65 69 74 78 82 83 80 79 80 81 82 83 83 81 81 79 76 73 75 81 82 76 69 66 64 61 58 54 47 41 38
54 55 51 49 48 45 43 40 35 34 37 40 41 41 40 38 36 38 44 48 51 57 65 70 66 61 62 67 69 69 68 69 71 70 68 68 66 63 60 57 58 61 61 60 62 66 67 68 71 70 67 68 69 68 64 63 63 67 71 77 81 79 77 79 79 80 82 84 82 82 81 80 78 78 81 81 74 68 67 67 67 67 66 62 55 49
52 57 54 50 48 46 43 38 35 34 34 37 40 41 41 39 38 41 44 47 50 52 55 63 68 66 65 66 66 68 70 70 69 67 65 65 64 60 57 56 56 57 58 57 58 60 63 64 66 68 67 67 69 68 66 64 63 66 70 74 79 79 75 75 75 76 79 82 84 86 85 83 81 80 79 76 72 71 71 70 69 67 68 68 65 60
48 54 55 52 50 49 45 40 36 34 34 36 38 40 42 40 41 47 51 50 49 52 57 64 68 70 70 68 65 67 69 67 65 64 64 63 60 57 56 56 55 54 54 54 55 57 60 61 62 64 64 65 67 67 67 65 63 68 75 77 80 79 74 73 73 73 77 80 81 84 86 85 82 80 78 75 73 74 72 68 68 68 68 70 71 68
45 50 55 56 54 50 47 44 40 36 34 34 35 39 41 41 41 43 47 50 49 51 60 66 67 67 67 65 65 67 67 63 62 62 60 58 56 54 55 55 54 54 52 52 53 54 56 58 60 60 59 61 64 65 67 67 65 69 75 77 78 76 71 72 75 73 74 77 78 82 84 85 84 83 81 78 77 77 74 69 68 69 69 71 73 73
46 48 52 56 57 54 49 46 44 42 40 39 40 40 39 41 42 41 45 50 48 48 54 59 59 62 64 62 63 68 69 64 60 57 56 55 53 53 54 54 56 57 56 53 53 52 53 56 61 62 60 60 64 64 64 66 69 71 73 73 75 75 70 69 74 75 74 74 75 76 77 79 82 84 85 84 81 80 80 76 72 71 72 72 74 74
48 49 50 52 55 56 53 50 50 50 49 48 47 42 38 42 47 48 50 51 47 47 50 51 55 61 63 60 58 61 63 61 58 55 54 52 51 52 54 56 58 59 58 55 53 52 52 55 59 61 58 58 61 63 63 65 68 71 71 68 66 67 68 66 68 71 73 75 77 76 74 74 76 80 83 85 86 85 84 82 80 79 77 76 76 75
47 48 49 50 50 53 55 55 55 56 55 55 52 45 42 44 49 52 55 53 50 52 54 55 59 62 60 60 59 58 58 57 55 55 53 51 50 50 52 55 56 56 57 57 56 55 54 55 56 56 55 55 56 58 61 66 69 70 68 62 56 56 59 61 64 66 66 70 75 77 76 76 78 79 79 80 83 85 85 85 84 83 82 80 78 76
43 44 48 50 49 50 52 55 58 57 55 57 56 50 46 45 46 51 58 58 55 54 53 53 55 55 54 57 59 59 58 54 51 52 53 53 53 52 51 53 54 53 55 58 59 57 56 56 54 54 55 55 55 56 57 61 64 65 64 63 60 58 55 55 57 58 58 61 66 70 72 75 76 79 79 76 76 78 80 82 83 82 80 79 78 77
40 43 48 49 46 47 48 53 59 58 54 54 54 51 50 47 45 50 60 62 59 58 55 51 51 51 49 51 54 55 58 57 54 53 52 52 55 55 52 51 54 55 55 56 56 55 55 55 53 52 53 54 56 57 56 56 57 58 59 61 62 61 55 50 49 49 48 52 56 59 64 66 67 70 73 73 71 70 72 76 78 79 77 76 77 79
36 38 44 48 48 48 48 50 53 54 54 54 53 50 48 47 46 50 59 64 64 64 63 58 53 50 48 49 51 52 56 62 65 62 56 53 53 52 50 52 56 58 57 57 56 54 56 56 53 52 54 56 57 58 57 56 56 56 57 58 58 56 53 49 47 45 44 44 46 47 50 52 53 55 58 61 63 64 66 69 72 75 74 73 74 77
35 34 38 43 44 46 47 46 47 49 52 55 56 51 46 47 50 51 58 66 67 66 69 70 64 58 55 54 52 51 55 63 69 70 68 61 53 50 49 51 56 58 55 54 55 56 60 60 56 55 56 57 58 59 58 56 55 56 57 59 58 55 51 48 46 44 42 41 40 39 39 40 42 45 48 50 52 56 60 62 64 68 70 71 73 74
38 36 36 36 37 39 41 41 43 48 51 52 53 50 45 47 50 51 56 65 64 59 64 72 73 70 64 57 54 56 58 60 64 70 73 67 59 54 51 49 52 54 51 49 51 54 57 59 57 56 56 56 55 56 55 53 52 51 53 54 54 51 48 45 43 41 41 40 38 37 38 38 40 41 42 43 45 47 50 53 56 59 62 64 66 67
36 34 35 34 31 32 33 32 36 45 49 47 46 46 44 45 48 52 57 61 59 58 62 66 69 73 73 67 63 62 58 55 58 63 65 62 59 58 54 47 48 53 52 49 50 53 54 55 54 54 55 56 55 53 51 49 46 45 45 45 45 44 43 42 41 39 39 39 39 39 41 41 42 41 39 38 39 40 41 44 46 49 50 51 52 55
35 33 34 33 30 30 30 28 32 42 47 43 42 43 42 42 47 53 56 57 57 59 62 62 63 68 73 73 70 65 57 52 53 54 54 56 58 59 56 49 48 52 55 53 53 54 54 54 53 53 54 56 56 54 51 47 44 43 43 42 42 41 40 38 37 36 36 36 37 38 40 41 41 41 39 37 36 35 35 35 37 39 41 42 43 47
36 34 34 33 32 32 31 27 28 37 42 39 40 42 43 45 49 52 52 54 57 59 60 60 63 64 65 64 63 62 60 57 54 52 52 56 60 60 58 55 53 54 56 56 56 55 53 53 53 54 55 56 56 55 53 50 46 45 45 44 41 37 33 30 29 29 29 31 32 33 34 35 36 37 37 37 36 35 34 34 34 35 36 38 42 46
36 34 35 37 36 37 39 37 36 38 40 39 40 43 44 45 47 47 49 52 56 59 61 63 64 64 63 60 57 58 59 60 59 57 55 56 60 62 62 62 61 59 57 56 57 57 55 53 53 54 55 56 55 54 53 52 49 46 44 43 39 34 29 27 26 25 25 26 28 29 30 32 33 34 34 34 34 33 33 34 35 36 38 41 44 48
40 37 38 40 40 40 44 45 40 36 37 39 40 42 44 43 42 44 48 51 54 56 60 61 62 61 61 59 57 57 57 57 58 58 58 58 61 64 64 64 63 60 57 55 54 55 56 55 54 55 55 55 54 52 51 49 47 43 41 39 37 35 31 29 27 26 25 24 24 25 26 27 29 30 30 29 29 29 29 31 33 35 38 41 42 44
43 42 42 43 44 42 41 41 38 37 39 42 42 41 42 41 40 41 44 49 52 53 56 58 59 59 57 57 57 56 55 56 56 57 58 60 61 62 61 59 58 56 54 53 52 52 54 54 55 56 55 54 52 51 49 47 45 43 41 39 39 39 38 35 32 28 26 25 24 23 23 22 22 23 23 24 25 27 28 30 31 31 32 35 36 38
46 45 47 48 47 45 45 47 44 42 45 47 45 43 42 42 41 40 42 46 48 48 51 55 58 60 59 58 58 59 58 58 57 58 58 59 61 61 58 56 56 54 53 52 51 50 50 50 52 54 53 52 51 50 48 48 46 46 46 45 43 43 40 39 36 32 28 26 25 23 23 22 20 20 19 19 20 23 26 28 30 30 30 31 32 33
49 48 51 54 53 50 50 52 50 48 51 52 51 48 44 42 41 41 42 44 44 44 47 51 55 58 62 62 62 61 62 62 61 61 61 60 61 61 58 54 52 50 49 48 46 45 45 45 46 47 47 48 50 50 50 49 48 48 48 48 47 46 44 42 39 37 33 30 27 25 23 22 21 19 18 18 18 18 20 22 24 26 28 30 31 31
47 47 50 51 51 51 51 51 49 50 54 55 55 55 52 47 45 43 42 42 42 42 44 46 48 51 55 58 59 60 61 63 62 61 60 60 60 59 55 51 46 42 41 40 40 40 41 41 41 42 42 44 46 47 46 45 44 43 43 44 44 44 43 43 41 38 36 33 31 29 26 24 23 21 20 19 18 17 17 17 19 20 21 23 26 29
44 47 48 47 48 50 49 47 48 51 55 56 55 56 56 53 50 47 46 45 44 44 44 44 45 45 46 48 50 52 55 57 57 55 54 54 54 53 51 49 45 40 38 37 37 36 36 36 36 38 39 40 40 39 38 38 38 37 37 37 37 37 37 37 36 35 34 32 30 29 27 25 24 23 22 21 20 18 17 17 17 18 18 18 19 21
42 45 46 47 50 50 47 44 45 49 54 57 57 56 55 56 55 56 55 53 49 47 46 44 43 42 42 42 42 44 48 51 52 51 51 51 50 49 47 46 42 37 35 35 34 33 32 32 33 34 34 34 34 34 33 33 32 32 31 31 33 33 33 33 33 32 31 30 28 27 25 25 23 22 21 20 20 19 18 17 16 16 16 17 17 17